Back to catalog

STARLINK-6305

AliveCommunicationsVLEO
NORAD 56394·PAYLOAD·🇺🇸 United States

Launched May 4, 2023 from Cape Canaveral Space Force Station

Loading…

Next Passes (next 24 hours)

TLE

FreshSource: CelesTrak SupGP

Epoch: Sep 14, 2026, 20:34 UTC

1 56394C 23061W   26257.85743056  .00007241  00000+0  26231-3 0  2576
2 56394  43.0023 198.3918 0001277 267.4979 293.2606 15.27570115    14

Track STARLINK-6305 in real time with AllMySat

Download on the App Store